[[{"header":{"parameterUnit":"m.s-1","parameterCategory":1,"la1":30.2991,"la2":30.254,"lo1":-89.0895,"lo2":-89.0444,"dy":0.0017,"dx":0.0017,"nx":28,"ny":28,"refTime":"2024-07-08T03:00:00:Z","depth":0,"parameterNumber":2,"parameterNumberName":"U-component_of_WINDS"},"data":[0,0,0,0,0,0,0,0,0,0,0,0,0,0,0,0,0,0,0,0,0,0,0,0,0,0,0,0,0,0,0,0,0,0,0,0,0,0,0,0,0,0,0,0,0,0,0,0,0,0,0,0,0,0,0,0,0,0,-2.5743,-2.5743,0,-2.5811,-2.5812,-2.5813,-2.5843,-2.5843,-2.5843,-2.5843,-2.5911,-2.5913,-2.5915,0,0,0,0,0,0,0,0,0,0,0,0,0,-2.5637,-2.5638,-2.5743,-2.5743,-2.5744,-2.5811,-2.5812,-2.5813,-2.5843,-2.5843,-2.5843,-2.5843,-2.591,-2.5913,-2.5915,0,0,0,0,0,0,0,0,0,0,0,0,0,-2.5691,-2.5639,-2.5742,-2.5768,-2.5771,-2.5811,-2.5812,-2.5813,-2.5843,-2.5843,-2.5843,-2.5843,-2.591,-2.5912,-2.5915,-2.5935,0,0,-2.5924,-2.5925,0,0,0,0,0,0,0,0,-2.5688,-2.5695,-2.5763,-2.5766,-2.5769,-2.5819,-2.5799,-2.5854,-2.5843,-2.5816,-2.5843,-2.5843,-2.588,-2.5885,-2.5898,-2.5938,-2.5941,-2.5924,-2.5926,-2.5927,-2.5928,0,0,0,0,0,0,0,-2.5684,-2.5693,-2.577,-2.5764,-2.5768,-2.5775,-2.5783,-2.581,-2.5848,-2.5818,-2.582,-2.5828,-2.5882,-2.5896,-2.59,-2.5942,-2.5924,-2.5926,-2.5928,-2.5929,-2.6,-2.6,0,0,0,0,0,0,-2.5677,-2.5689,-2.5767,-2.5772,-2.5728,-2.5777,-2.5785,-2.5803,-2.5847,-2.5854,-2.5828,-2.5829,-2.5891,-2.5897,-2.5903,-2.5929,-2.5927,-2.5929,-2.5931,-2.6,-2.6,-2.6001,0,0,0,0,0,0,-2.5674,-2.5684,-2.5765,-2.5731,-2.5742,-2.5779,-2.5798,-2.5804,-2.5818,-2.5855,-2.5862,-2.5835,-2.5891,-2.5899,-2.5927,-2.5931,-2.5931,-2.5933,-2.6,-2.6,-2.6,-2.598,0,0,0,0,0,0,-2.5671,-2.5683,-2.5691,-2.5731,-2.5744,-2.5788,-2.5798,-2.5806,-2.5823,-2.5825,-2.5864,-2.587,-2.5891,-2.5922,-2.5929,-2.5935,-2.5936,-2.6,-2.6,-2.6,-2.5981,-2.598,-2.5979,0,0,0,0,0,-2.5667,-2.5682,-2.5691,-2.57,-2.5755,-2.5788,-2.5795,-2.582,-2.5823,-2.5832,-2.5855,-2.5869,-2.5929,-2.5925,-2.5933,-2.594,-2.5999,-2.6,-2.6,-2.5981,-2.598,-2.5979,0,0,0,0,0,0,-2.5641,-2.5688,-2.5698,-2.5727,-2.5753,-2.5793,-2.5805,-2.5819,-2.5845,-2.5845,-2.5875,-2.5883,-2.5908,-2.5927,-2.5921,-2.5961,-2.5966,-2.5968,-2.5948,-2.5947,-2.5946,-2.5942,-2.5938,0,0,0,0,0,-2.5639,-2.5662,-2.5702,-2.5723,-2.5736,-2.5768,-2.5783,-2.58,-2.5829,-2.584,-2.5866,-2.5892,-2.5917,-2.5933,-2.5958,-2.5983,-2.5992,-2.5992,-2.5991,-2.599,-2.5992,-2.6006,-2.6006,-2.6002,-2.6002,-2.6002,0,0,-2.5634,-2.5662,-2.5675,-2.5718,-2.5741,-2.5764,-2.5777,-2.5801,-2.5819,-2.5843,-2.5872,-2.5891,-2.5923,-2.5949,-2.5962,-2.5965,-2.5995,-2.5991,-2.599,-2.5992,-2.6006,-2.6007,-2.6007,-2.6002,-2.6002,-2.6002,0,0,-2.5637,-2.5661,-2.5681,-2.5703,-2.5738,-2.5759,-2.5763,-2.5802,-2.5816,-2.5844,-2.5863,-2.5884,-2.5927,-2.5948,-2.5965,-2.5975,-2.5988,-2.5982,-2.5978,-2.5992,-2.5992,-2.5993,-2.5996,-2.5997,-2.5984,-2.5984,-2.5984,0,-2.5626,-2.5663,-2.5689,-2.5713,-2.5731,-2.5755,-2.5775,-2.5795,-2.5835,-2.5847,-2.585,-2.5904,-2.5927,-2.5959,-2.5961,-2.5974,-2.598,-2.5978,-2.599,-2.5991,-2.5992,-2.5995,-2.5997,-2.5983,-2.5983,-2.5983,-2.5983,0,-2.5648,-2.5673,-2.5685,-2.5724,-2.5743,-2.5765,-2.5794,-2.581,-2.5825,-2.5846,-2.5874,-2.5902,-2.5934,-2.5942,-2.5957,-2.5976,-2.5977,-2.5985,-2.599,-2.5991,-2.5995,-2.5996,-2.5982,-2.5982,-2.5982,-2.5982,0,0,-2.5637,-2.569,-2.5694,-2.5712,-2.5751,-2.577,-2.5792,-2.5823,-2.5837,-2.5863,-2.5882,-2.5918,-2.5925,-2.5944,-2.5961,-2.5973,-2.5979,-2.5979,-2.5981,-2.5978,-2.6001,-2.5995,-2.5996,-2.5988,-2.5988,-2.5989,-2.5999,0,-2.5645,-2.5687,-2.5711,-2.5743,-2.5766,-2.5788,-2.5807,-2.5833,-2.5853,-2.5875,-2.5896,-2.5921,-2.5929,-2.594,-2.5953,-2.5976,-2.5984,-2.5975,-2.6005,-2.6006,-2.5997,-2.5999,-2.5992,-2.6001,-2.6,-2.6001,-2.6001,0,-2.5661,-2.5688,-2.5721,-2.5758,-2.5768,-2.5785,-2.5815,-2.5836,-2.5865,-2.5878,-2.5899,-2.5916,-2.594,-2.5943,-2.5976,-2.5969,-2.5983,-2.5996,-2.5997,-2.6001,-2.6004,-2.6003,-2.6004,-2.6005,-2.6004,-2.6003,-2.6003,0,-2.565,-2.5694,-2.572,-2.5734,-2.5777,-2.5788,-2.5806,-2.5836,-2.5852,-2.5878,-2.589,-2.5918,-2.5933,-2.5954,-2.5978,-2.5978,-2.6008,-2.6014,-2.602,-2.6019,-2.6025,-2.6025,-2.6029,-2.6034,-2.6034,-2.6034,-2.6034,0,-2.5657,-2.5676,-2.5715,-2.5731,-2.5753,-2.5781,-2.5802,-2.5822,-2.5847,-2.5867,-2.5888,-2.5906,-2.5937,-2.5958,-2.5977,-2.6001,-2.6008,-2.6019,-2.6024,-2.6017,-2.6016,-2.6027,-2.6027,-2.6034,-2.6034,-2.6034,-2.6034,0,-2.5648,-2.5675,-2.5704,-2.5742,-2.5752,-2.5767,-2.5799,-2.5815,-2.5836,-2.586,-2.5867,-2.5899,-2.5926,-2.5952,-2.5987,-2.6,-2.6023,-2.603,-2.6014,-2.6016,-2.6021,-2.602,-2.6033,-2.6036,-2.6038,-2.6038,-2.6038,0,-2.565,-2.5666,-2.5706,-2.5721,-2.5739,-2.5762,-2.578,-2.5807,-2.5824,-2.5858,-2.587,-2.5898,-2.5922,-2.5962,-2.5988,-2.6015,-2.6023,-2.6025,-2.6027,-2.602,-2.6023,-2.6022,-2.6023,-2.6024,-2.6024,-2.6024,-2.6024,0,-2.5653,-2.5665,-2.5689,-2.5718,-2.5739,-2.5763,-2.5787,-2.5798,-2.583,-2.5848,-2.5876,-2.5894,-2.593,-2.5957,-2.5987,-2.6006,-2.602,-2.6023,-2.6026,-2.602,-2.601,-2.6015,-2.6012,-2.6023,-2.6023,-2.6023,-2.6023,-2.6023,-2.565,-2.5665,-2.5695,-2.5721,-2.5743,-2.5765,-2.5782,-2.5805,-2.5828,-2.586,-2.5874,-2.5902,-2.593,-2.5972,-2.599,-2.6011,-2.6015,-2.6019,-2.602,-2.6021,-2.6019,-2.6006,-2.6017,-2.6017,-2.6017,-2.6017,-2.6017,0,-2.5653,-2.5673,-2.5697,-2.5731,-2.5752,-2.5764,-2.5792,-2.5808,-2.5832,-2.5858,-2.5881,-2.5912,-2.5938,-2.5966,-2.5994,-2.6006,-2.6013,-2.6013,-2.6012,-2.6016,-2.6014,-2.6009,-2.6006,-2.6006,-2.6006,-2.6006,-2.6006,-2.6006,-2.5657,-2.5683,-2.5698,-2.5735,-2.5755,-2.5782,-2.5797,-2.5818,-2.5838,-2.5872,-2.5895,-2.5913,-2.5939,-2.5969,-2.5994,-2.6001,-2.6011,-2.6008,-2.6017,-2.6015,-2.6016,-2.6017,-2.6012,-2.601,-2.601,-2.6017,-2.6017,-2.6017]},{"header":{"parameterUnit":"m.s-1","parameterCategory":1,"la1":30.2991,"la2":30.254,"lo1":-89.0895,"lo2":-89.0444,"dy":0.0017,"dx":0.0017,"nx":28,"ny":28,"refTime":"2024-07-08T03:00:00:Z","depth":0,"parameterNumber":3,"parameterNumberName":"V-component_of_WINDS"},"data":[0,0,0,0,0,0,0,0,0,0,0,0,0,0,0,0,0,0,0,0,0,0,0,0,0,0,0,0,0,0,0,0,0,0,0,0,0,0,0,0,0,0,0,0,0,0,0,0,0,0,0,0,0,0,0,0,0,0,6.3226,6.3226,0,6.3296,6.3297,6.3298,6.3228,6.3225,6.3223,6.322,6.3287,6.3291,6.3295,0,0,0,0,0,0,0,0,0,0,0,0,0,6.3025,6.3029,6.3226,6.3226,6.3227,6.3296,6.3297,6.3298,6.3229,6.3225,6.3222,6.3219,6.3286,6.3291,6.3296,0,0,0,0,0,0,0,0,0,0,0,0,0,6.3105,6.3031,6.3225,6.3201,6.32,6.3296,6.3297,6.3298,6.3229,6.3225,6.3221,6.3217,6.3284,6.329,6.3297,6.3418,0,0,6.3316,6.3319,0,0,0,0,0,0,0,0,6.3101,6.3113,6.3204,6.3203,6.3202,6.3249,6.3251,6.3338,6.323,6.3218,6.322,6.3215,6.3277,6.3284,6.3306,6.3422,6.3424,6.3317,6.3321,6.3324,6.3325,0,0,0,0,0,0,0,6.3096,6.3109,6.3253,6.3205,6.3204,6.3185,6.3192,6.3267,6.3269,6.3219,6.3214,6.3223,6.3276,6.33,6.3307,6.3425,6.3317,6.3322,6.3326,6.3329,6.3642,6.3646,0,0,0,0,0,0,6.3093,6.3105,6.3251,6.3255,6.314,6.3192,6.3199,6.3238,6.3269,6.3269,6.3227,6.322,6.3291,6.33,6.3309,6.3452,6.3324,6.333,6.3333,6.3637,6.3643,6.3648,0,0,0,0,0,0,6.3089,6.3107,6.3248,6.3179,6.3196,6.32,6.3243,6.3241,6.3266,6.3275,6.3274,6.3251,6.3288,6.33,6.3392,6.3453,6.3333,6.3338,6.3632,6.3639,6.3645,6.374,0,0,0,0,0,0,6.3084,6.3106,6.3154,6.3181,6.32,6.3331,6.3247,6.3246,6.3278,6.3269,6.3298,6.3298,6.3286,6.3382,6.3398,6.346,6.3344,6.3627,6.3635,6.3643,6.3731,6.3749,6.3764,0,0,0,0,0,6.3077,6.3177,6.3157,6.3175,6.326,6.3335,6.3346,6.3331,6.3283,6.333,6.3335,6.3297,6.3445,6.3392,6.3409,6.3474,6.3623,6.3633,6.3643,6.3724,6.3745,6.3764,0,0,0,0,0,0,6.3155,6.318,6.3158,6.327,6.3301,6.3323,6.3382,6.3354,6.3398,6.3388,6.3366,6.3373,6.347,6.3481,6.3423,6.3593,6.3526,6.3539,6.3581,6.3602,6.3618,6.3612,6.3349,0,0,0,0,0,6.3186,6.3247,6.3265,6.3362,6.3379,6.3378,6.341,6.3396,6.3427,6.3439,6.3452,6.3481,6.3534,6.3569,6.3618,6.3733,6.3737,6.3786,6.3803,6.3816,6.3827,6.3887,6.3908,6.368,6.368,6.368,0,0,6.3249,6.327,6.331,6.3378,6.34,6.3462,6.3389,6.3458,6.3503,6.3449,6.3536,6.3546,6.3578,6.3681,6.3727,6.3694,6.3892,6.3829,6.384,6.3843,6.3899,6.3921,6.394,6.3687,6.3686,6.3685,0,0,6.3395,6.3419,6.3501,6.3526,6.3561,6.356,6.358,6.3607,6.3612,6.3699,6.366,6.3712,6.3804,6.3827,6.3851,6.4007,6.3972,6.4023,6.4108,6.4166,6.4184,6.42,6.4253,6.4272,6.4035,6.4035,6.4036,0,6.3469,6.3562,6.3547,6.3618,6.3648,6.3604,6.3686,6.371,6.3759,6.378,6.3743,6.3856,6.3875,6.3982,6.402,6.4041,6.4061,6.4019,6.4183,6.4199,6.4213,6.4263,6.4284,6.4041,6.4041,6.404,6.4039,0,6.3649,6.3714,6.3776,6.3826,6.3863,6.394,6.3934,6.3973,6.3956,6.3958,6.4047,6.4068,6.4119,6.4144,6.4128,6.4249,6.4226,6.4187,6.4118,6.4241,6.4288,6.4307,6.4049,6.4047,6.4046,6.4044,0,0,6.3845,6.3886,6.3909,6.393,6.3967,6.4015,6.4089,6.4141,6.4174,6.421,6.4269,6.4348,6.4311,6.4339,6.4324,6.4376,6.4494,6.4329,6.433,6.4357,6.4626,6.4654,6.4677,6.4473,6.4477,6.448,6.4623,0,6.399,6.412,6.4108,6.4229,6.4288,6.4247,6.4311,6.4339,6.4343,6.4391,6.4395,6.4451,6.4399,6.4415,6.4465,6.447,6.4548,6.4459,6.4525,6.4528,6.4516,6.4701,6.4731,6.4865,6.4641,6.4644,6.4646,0,6.4177,6.422,6.4348,6.4374,6.4398,6.4456,6.4502,6.455,6.458,6.4579,6.461,6.4587,6.4658,6.4591,6.4688,6.4628,6.4654,6.4661,6.4666,6.4669,6.4593,6.4707,6.4908,6.4927,6.4675,6.4673,6.4671,0,6.4304,6.4394,6.4482,6.4502,6.4535,6.4576,6.4592,6.4618,6.465,6.469,6.4709,6.4757,6.4782,6.4819,6.4808,6.476,6.4907,6.4839,6.4906,6.4906,6.4936,6.4934,6.5142,6.4958,6.4958,6.4957,6.4957,0,6.4466,6.4545,6.4539,6.4593,6.468,6.4665,6.475,6.4761,6.4784,6.4838,6.4806,6.4856,6.484,6.4889,6.4881,6.4961,6.4974,6.4973,6.497,6.4975,6.4975,6.499,6.4979,6.4963,6.4962,6.4961,6.496,0,6.4622,6.4621,6.4714,6.4738,6.4746,6.4809,6.4828,6.4878,6.488,6.4947,6.4962,6.4965,6.5021,6.5014,6.5077,6.5071,6.517,6.5157,6.516,6.5156,6.5223,6.5216,6.5446,6.5474,6.5274,6.5276,6.5278,0,6.4724,6.4784,6.4815,6.4849,6.4868,6.4923,6.4956,6.4943,6.4978,6.5016,6.5061,6.5114,6.5156,6.5247,6.5253,6.53,6.5286,6.5363,6.5292,6.5295,6.5284,6.528,6.5284,6.5376,6.5378,6.538,6.5382,0,6.4905,6.4901,6.495,6.4999,6.5039,6.5077,6.511,6.514,6.513,6.5171,6.5228,6.5261,6.5325,6.5377,6.5422,6.5435,6.5406,6.5404,6.5422,6.5426,6.5425,6.5424,6.5196,6.5398,6.5397,6.5395,6.5395,6.5394,6.5035,6.5086,6.5115,6.517,6.5195,6.5227,6.5274,6.5283,6.5331,6.5383,6.5372,6.5437,6.5464,6.5521,6.5539,6.5588,6.5559,6.5585,6.5591,6.5597,6.5604,6.542,6.5596,6.5595,6.5595,6.5595,6.5594,0,6.5212,6.5229,6.528,6.5329,6.5372,6.5343,6.5379,6.5416,6.5473,6.5502,6.5544,6.5609,6.566,6.567,6.5718,6.5755,6.5743,6.5768,6.5764,6.5767,6.5628,6.5607,6.5777,6.5777,6.5777,6.5777,6.5777,6.5777,6.5309,6.5393,6.5393,6.5488,6.5504,6.5567,6.559,6.5619,6.5641,6.5716,6.5759,6.5766,6.5786,6.5835,6.588,6.5882,6.5899,6.5929,6.5926,6.5795,6.5777,6.5759,6.5739,6.5934,6.5934,6.606,6.6061,6.6062]}]]